Wind_Speed
10 10 11 11 11 11 11 11 12 12 11 11 11 11 12 12 12 12 13 13 14 15 16 17 18 19 20 21 22 23 24 24 25 26 27 28 29 30
13 13 14 14 14 13 13 13 14 14 14 13 13 13 13 14 14 15 15 15 15 16 17 18 18 20 21 22 22 24 25 26 27 28 28 30 31 32
16 16 16 16 16 16 16 16 16 16 16 16 16 16 16 16 16 16 17 17 18 18 18 19 19 20 21 22 23 24 25 26 27 29 30 31 32 33
19 19 19 19 19 19 18 18 18 18 18 19 19 19 19 19 19 19 19 19 20 21 21 21 21 22 22 23 24 25 26 27 28 29 31 32 33 34
22 22 21 21 21 21 21 21 21 21 21 21 22 22 22 22 22 21 21 22 22 23 23 24 24 24 24 24 25 26 27 28 29 30 31 32 33 34
24 24 24 24 24 24 24 24 24 24 24 24 24 24 24 25 25 25 25 25 25 25 26 26 26 27 27 27 27 27 27 28 29 30 31 32 33 34
27 27 27 27 27 26 26 26 27 27 27 27 27 27 27 27 28 28 28 28 28 28 28 28 29 29 29 30 30 30 30 30 30 31 31 32 33 35
29 30 29 29 29 29 29 29 29 29 30 30 30 30 30 31 31 31 31 31 31 32 31 31 32 31 32 32 32 32 33 33 33 33 33 33 34 35
30 31 31 31 32 32 32 32 32 32 33 33 33 33 33 34 35 35 35 35 34 35 35 34 34 34 34 34 35 35 35 35 35 35 35 35 35 35
33 33 34 34 35 36 36 35 35 35 36 36 36 36 37 38 38 39 38 38 38 38 38 37 37 37 37 37 37 37 37 38 38 38 37 37 37 37
34 35 36 37 38 39 38 38 37 38 39 39 39 40 40 41 42 42 43 43 42 41 42 41 40 41 40 40 40 40 40 40 40 40 40 40 40 40
37 38 39 39 40 40 40 40 40 41 42 43 43 43 44 45 46 47 47 48 47 45 45 46 45 45 44 43 44 43 43 43 43 43 43 43 43 42
39 40 41 41 42 43 43 43 44 44 45 46 46 47 48 49 50 51 52 52 51 50 49 50 50 50 49 47 47 47 47 46 46 46 46 46 46 45
41 42 43 43 45 46 47 47 47 48 48 49 50 50 51 52 53 54 55 56 56 55 54 54 54 53 53 52 51 50 50 49 49 48 49 49 48 48
42 43 44 45 45 46 48 49 50 51 52 52 53 54 55 56 57 57 57 58 58 57 57 57 56 56 56 54 53 52 51 50 50 50 50 50 50 49
43 43 44 45 46 47 48 50 52 53 54 55 55 56 57 58 59 60 60 60 60 58 58 58 58 58 57 56 56 54 53 52 51 51 51 50 49 49
43 45 46 48 49 50 51 53 54 55 56 57 58 59 59 59 59 60 60 61 61 59 58 58 59 59 59 59 58 56 55 54 53 52 52 51 49 49
46 48 49 50 51 52 53 54 55 56 57 57 58 58 59 59 59 60 61 61 60 60 59 59 60 60 60 58 57 56 56 55 54 54 53 52 50 49
48 49 51 52 53 54 54 55 56 56 56 56 56 55 56 56 57 57 58 59 58 58 58 58 58 58 58 56 53 54 54 53 53 53 52 51 50 48
50 51 52 53 54 54 55 55 54 54 53 53 53 53 53 53 53 53 53 53 53 53 52 52 52 52 52 52 50 50 50 51 51 50 50 50 48 47
51 52 52 53 53 53 52 51 51 51 50 50 50 49 49 49 49 49 48 48 48 47 47 47 47 47 48 47 47 45 46 47 47 47 47 47 46 45
51 51 51 50 49 48 47 47 47 47 47 47 46 46 46 45 45 44 44 44 44 43 42 41 42 43 43 43 43 42 42 44 45 45 44 44 43 42
48 48 46 45 44 43 43 43 43 43 43 43 42 41 41 41 41 40 39 39 38 38 38 37 37 38 38 38 37 37 38 39 40 40 39 40 40 40
Wind_Direction
289 292 294 295 296 299 303 305 307 306 303 301 299 298 298 296 294 291 287 283 281 277 274 272 269 266 264 263 261 259 258 256 255 254 252 251 250 249
281 285 288 289 290 292 295 298 298 297 297 295 293 291 290 291 291 289 287 286 284 281 277 274 272 269 267 265 263 262 260 259 258 257 256 254 252 252
277 280 282 285 286 287 291 292 293 292 291 291 290 288 288 289 289 288 285 285 285 284 280 277 274 271 269 267 266 264 262 261 260 259 257 256 255 253
274 276 278 281 284 284 287 288 289 289 288 288 287 286 286 287 287 286 285 285 284 283 281 279 277 274 271 269 267 266 264 263 262 261 259 257 256 255
272 274 277 279 281 283 284 285 286 286 285 286 285 284 284 286 286 286 286 285 284 283 281 279 278 276 273 271 269 268 266 265 263 262 261 260 258 256
271 273 275 277 279 280 282 283 284 284 284 284 284 282 282 283 284 284 284 284 284 283 281 279 277 276 274 272 271 269 268 268 266 265 264 262 260 258
269 271 273 276 277 278 279 281 282 282 282 282 282 281 281 281 281 281 281 282 282 281 279 279 277 275 274 272 271 270 269 268 268 267 266 264 262 260
269 270 272 274 276 277 278 280 280 280 280 280 280 280 280 280 280 280 280 280 279 278 277 276 275 274 273 272 271 271 270 269 268 268 266 265 264 262
269 270 272 273 275 277 279 279 280 279 279 279 279 279 279 279 279 279 279 278 278 277 276 275 274 272 271 271 271 270 270 270 269 268 267 266 265 264
268 269 272 273 275 276 277 277 278 278 278 277 278 278 279 279 279 279 279 279 278 277 276 274 273 272 271 271 270 270 269 269 268 268 267 267 266 264
268 270 272 273 274 275 276 277 276 277 277 277 278 278 278 278 278 278 279 279 279 277 277 275 273 271 271 271 270 270 269 268 267 267 267 267 266 265
269 270 272 273 274 275 275 275 275 276 277 278 278 278 278 278 278 278 278 278 278 277 276 275 273 272 270 270 270 269 269 268 267 267 267 267 266 265
273 271 272 273 274 273 274 274 274 275 276 277 278 278 278 278 278 278 278 277 277 276 274 273 272 272 271 269 268 268 268 267 266 266 266 266 266 266
273 271 272 273 275 276 276 275 276 277 277 277 278 278 278 278 278 277 277 277 276 276 274 273 272 271 270 269 268 268 268 267 266 265 265 265 265 265
274 274 274 275 275 276 277 277 277 278 278 278 278 279 278 278 278 277 277 276 276 275 274 273 272 271 270 269 268 267 266 266 266 265 265 265 265 264
276 275 276 277 278 278 278 278 279 279 280 279 279 279 278 278 278 277 276 276 275 274 273 272 270 270 269 269 268 266 265 264 264 264 264 263 263 263
278 277 278 278 279 280 280 280 281 281 281 280 280 280 279 279 279 277 277 276 274 272 270 269 269 269 268 268 267 266 265 264 263 263 262 262 262 262
279 280 280 280 280 280 281 281 281 281 281 281 281 281 280 279 278 277 276 276 274 273 271 269 268 267 266 265 266 265 264 263 262 262 261 261 261 261
281 281 281 281 281 281 281 281 281 281 281 282 282 281 281 280 279 278 277 276 274 273 271 270 268 266 266 265 264 263 262 261 261 261 261 261 260 259
283 283 283 283 283 283 282 282 281 281 282 282 282 282 282 282 281 280 278 277 275 274 272 270 268 267 266 265 263 261 261 260 260 260 260 260 259 258
285 285 284 284 284 283 283 283 283 283 282 282 283 282 283 283 282 281 280 278 277 275 272 269 267 266 265 264 263 261 259 259 259 258 258 258 257 258
287 286 286 285 285 284 284 284 284 284 284 284 284 284 283 283 283 283 282 280 277 275 273 271 267 264 264 265 264 262 259 258 258 257 257 256 256 255
287 287 287 286 285 285 285 285 285 285 285 285 285 285 285 284 284 284 283 281 278 275 274 272 269 267 266 266 265 263 260 257 255 255 255 256 255 253
Height
5867 5866 5866 5865 5864 5863 5862 5861 5860 5859 5858 5856 5855 5854 5853 5851 5850 5849 5849 5848 5847 5846 5846 5845 5845 5845 5845 5845 5845 5845 5846 5846 5847 5848 5849 5850 5851 5852
5863 5862 5861 5860 5860 5859 5858 5857 5856 5855 5853 5852 5851 5850 5849 5848 5846 5845 5844 5843 5842 5842 5841 5840 5840 5839 5839 5839 5839 5839 5839 5840 5840 5841 5842 5843 5844 5845
5858 5857 5856 5855 5854 5853 5853 5852 5851 5850 5849 5848 5846 5845 5844 5843 5841 5840 5839 5838 5837 5836 5835 5835 5834 5833 5833 5833 5832 5832 5832 5832 5833 5833 5834 5835 5836 5837
5853 5852 5851 5850 5849 5848 5847 5846 5845 5844 5843 5842 5841 5839 5838 5837 5836 5835 5833 5832 5831 5830 5829 5828 5827 5827 5826 5826 5825 5825 5825 5825 5825 5825 5826 5827 5827 5828
5847 5846 5845 5844 5843 5842 5841 5839 5839 5838 5837 5835 5834 5833 5832 5830 5829 5828 5827 5825 5824 5823 5822 5821 5820 5819 5819 5818 5818 5817 5817 5817 5817 5817 5817 5817 5818 5819
5840 5839 5838 5837 5836 5835 5834 5833 5832 5831 5830 5828 5827 5826 5824 5823 5822 5820 5819 5818 5817 5815 5814 5813 5812 5811 5811 5810 5810 5809 5809 5808 5808 5808 5808 5808 5808 5809
5832 5831 5830 5829 5828 5827 5826 5825 5824 5823 5822 5821 5819 5818 5817 5815 5814 5813 5811 5810 5808 5807 5806 5805 5804 5803 5802 5801 5801 5800 5800 5799 5799 5799 5798 5798 5799 5799
5824 5823 5822 5821 5820 5819 5818 5817 5816 5814 5813 5812 5811 5809 5808 5806 5805 5803 5802 5801 5800 5798 5797 5796 5794 5793 5792 5791 5791 5790 5790 5789 5789 5789 5788 5788 5789 5789
5815 5814 5813 5812 5811 5810 5809 5808 5806 5805 5803 5802 5801 5799 5798 5796 5794 5793 5792 5791 5790 5788 5786 5786 5784 5783 5782 5781 5780 5780 5779 5779 5778 5778 5778 5778 5778 5778
5805 5805 5804 5803 5801 5800 5799 5798 5796 5795 5793 5791 5790 5789 5787 5785 5783 5781 5780 5779 5778 5777 5775 5775 5773 5772 5771 5770 5769 5768 5768 5767 5767 5767 5767 5767 5767 5767
5795 5794 5793 5792 5791 5789 5787 5786 5785 5783 5781 5780 5778 5777 5775 5773 5771 5769 5767 5766 5765 5764 5762 5761 5761 5759 5758 5758 5757 5756 5755 5755 5755 5755 5755 5755 5755 5755
5784 5783 5781 5780 5779 5777 5775 5774 5773 5771 5768 5767 5766 5764 5762 5760 5757 5755 5753 5751 5750 5751 5749 5746 5746 5744 5745 5745 5743 5742 5742 5742 5742 5742 5742 5742 5741 5742
5772 5771 5769 5767 5766 5764 5762 5761 5759 5757 5755 5753 5752 5750 5748 5745 5743 5740 5737 5735 5734 5735 5734 5731 5730 5728 5728 5729 5729 5728 5727 5727 5727 5727 5728 5728 5727 5728
5760 5758 5756 5754 5753 5751 5749 5746 5744 5742 5740 5738 5736 5734 5732 5729 5726 5724 5721 5719 5717 5716 5715 5713 5712 5712 5711 5711 5712 5712 5711 5711 5712 5712 5712 5713 5713 5713
5747 5745 5743 5741 5739 5737 5734 5731 5729 5727 5724 5722 5720 5718 5715 5712 5709 5706 5703 5700 5699 5698 5697 5695 5694 5693 5692 5693 5694 5695 5695 5695 5695 5696 5696 5697 5697 5698
5734 5731 5729 5726 5724 5721 5719 5716 5713 5710 5707 5705 5702 5699 5696 5693 5690 5686 5684 5681 5679 5680 5678 5676 5674 5673 5674 5674 5675 5677 5677 5678 5679 5679 5679 5681 5682 5682
5719 5717 5714 5712 5709 5705 5702 5699 5695 5692 5689 5686 5682 5680 5676 5673 5670 5666 5663 5661 5659 5659 5659 5657 5655 5654 5654 5655 5656 5658 5659 5660 5661 5662 5662 5664 5666 5667
5704 5702 5699 5696 5692 5689 5685 5682 5678 5674 5670 5666 5663 5659 5656 5652 5649 5646 5643 5640 5639 5638 5638 5637 5635 5634 5634 5636 5638 5638 5640 5642 5643 5644 5645 5647 5650 5652
5688 5685 5682 5678 5674 5671 5667 5663 5660 5655 5651 5647 5644 5640 5636 5633 5630 5627 5623 5620 5618 5618 5617 5616 5615 5613 5614 5618 5621 5619 5620 5623 5624 5626 5628 5630 5633 5636
5671 5668 5664 5660 5656 5652 5649 5645 5641 5637 5633 5629 5626 5622 5618 5614 5611 5608 5605 5602 5600 5599 5598 5598 5597 5596 5596 5599 5602 5604 5604 5605 5607 5609 5612 5613 5616 5619
5654 5650 5646 5642 5638 5634 5630 5626 5623 5619 5616 5612 5609 5605 5601 5598 5594 5591 5588 5585 5583 5582 5582 5582 5581 5580 5580 5581 5584 5588 5589 5589 5590 5593 5596 5598 5601 5604
5637 5633 5629 5625 5621 5617 5613 5610 5606 5603 5600 5596 5593 5590 5586 5582 5579 5576 5573 5571 5569 5567 5567 5567 5566 5566 5566 5567 5569 5572 5574 5575 5576 5578 5581 5584 5586 5589
5621 5617 5613 5609 5605 5602 5598 5595 5592 5588 5585 5582 5579 5576 5572 5569 5566 5563 5560 5557 5555 5554 5553 5554 5554 5554 5554 5554 5556 5558 5560 5561 5563 5565 5568 5570 5573 5576